TimePST,TemperatureF,Dew PointF,Humidity,Sea Level PressureIn,VisibilityMPH,Wind Direction,Wind SpeedMPH,Gust SpeedMPH,PrecipitationIn,Events,Conditions,WindDirDegrees,DateUTC
12:15 AM,35.6,6.8,30,30.20,10.0,East,10.4,-,N/A,,Clear,100,2013-12-11 08:15:00
12:35 AM,37.4,6.8,28,30.20,10.0,East,9.2,-,N/A,,Clear,100,2013-12-11 08:35:00
12:55 AM,28.4,10.4,47,30.20,10.0,East,8.1,-,N/A,,Clear,100,2013-12-11 08:55:00
1:15 AM,32.0,8.6,38,30.20,10.0,ESE,9.2,-,N/A,,Clear,110,2013-12-11 09:15:00
1:35 AM,35.6,8.6,33,30.20,10.0,ESE,10.4,-,N/A,,Clear,110,2013-12-11 09:35:00
1:55 AM,30.2,10.4,44,30.20,10.0,ESE,9.2,-,N/A,,Clear,120,2013-12-11 09:55:00
2:15 AM,30.2,10.4,44,30.20,10.0,ESE,9.2,-,N/A,,Clear,120,2013-12-11 10:15:00
2:35 AM,30.2,10.4,44,30.20,10.0,ESE,9.2,-,N/A,,Clear,110,2013-12-11 10:35:00
2:55 AM,30.2,10.4,44,30.20,10.0,ESE,11.5,-,N/A,,Clear,120,2013-12-11 10:55:00
3:15 AM,30.2,10.4,44,30.20,10.0,East,8.1,-,N/A,,Clear,100,2013-12-11 11:15:00
3:35 AM,32.0,10.4,41,30.19,10.0,ESE,10.4,-,N/A,,Clear,110,2013-12-11 11:35:00
3:55 AM,30.2,10.4,44,30.19,10.0,ESE,10.4,-,N/A,,Clear,110,2013-12-11 11:55:00
4:15 AM,28.4,10.4,47,30.19,10.0,ESE,9.2,-,N/A,,Clear,120,2013-12-11 12:15:00
4:35 AM,33.8,6.8,32,30.19,10.0,East,11.5,-,N/A,,Clear,100,2013-12-11 12:35:00
4:55 AM,33.8,6.8,32,30.19,10.0,East,11.5,-,N/A,,Clear,100,2013-12-11 12:55:00
5:15 AM,35.6,5.0,28,30.19,10.0,East,13.8,-,N/A,,Clear,100,2013-12-11 13:15:00
5:35 AM,35.6,5.0,28,30.19,10.0,East,11.5,16.1,N/A,,Clear,100,2013-12-11 13:35:00
5:55 AM,35.6,5.0,28,30.20,10.0,East,13.8,-,N/A,,Clear,90,2013-12-11 13:55:00
6:15 AM,35.6,5.0,28,30.21,10.0,East,13.8,19.6,N/A,,Clear,90,2013-12-11 14:15:00
6:35 AM,35.6,5.0,28,30.21,10.0,ESE,13.8,20.7,N/A,,Clear,110,2013-12-11 14:35:00
6:55 AM,35.6,5.0,28,30.22,10.0,East,13.8,23.0,N/A,,Clear,100,2013-12-11 14:55:00
7:15 AM,35.6,5.0,28,30.23,10.0,ESE,11.5,-,N/A,,Clear,110,2013-12-11 15:15:00
7:35 AM,35.6,5.0,28,30.24,10.0,East,10.4,-,N/A,,Clear,100,2013-12-11 15:35:00
7:55 AM,37.4,5.0,26,30.25,9.0,East,12.7,17.3,N/A,,Clear,100,2013-12-11 15:55:00
8:15 AM,37.4,5.0,26,30.25,10.0,ESE,12.7,-,N/A,,Clear,110,2013-12-11 16:15:00
8:35 AM,39.2,6.8,26,30.26,10.0,ESE,15.0,-,N/A,,Clear,110,2013-12-11 16:35:00
8:55 AM,39.2,6.8,26,30.26,10.0,ESE,16.1,-,N/A,,Clear,110,2013-12-11 16:55:00
9:15 AM,41.0,8.6,26,30.27,9.0,ESE,13.8,23.0,N/A,,Clear,120,2013-12-11 17:15:00
9:35 AM,42.8,8.6,25,30.27,10.0,SE,18.4,25.3,N/A,,Clear,130,2013-12-11 17:35:00
9:55 AM,42.8,10.4,27,30.27,10.0,SE,19.6,24.2,N/A,,Clear,130,2013-12-11 17:55:00
10:15 AM,42.8,10.4,27,30.27,10.0,SE,21.9,28.8,N/A,,Clear,130,2013-12-11 18:15:00
10:35 AM,44.6,12.2,27,30.26,10.0,SE,18.4,26.5,N/A,,Clear,140,2013-12-11 18:35:00
10:55 AM,44.6,12.2,27,30.26,10.0,SE,18.4,25.3,N/A,,Clear,140,2013-12-11 18:55:00
11:15 AM,44.6,10.4,25,30.25,10.0,SE,17.3,27.6,N/A,,Clear,140,2013-12-11 19:15:00
11:35 AM,46.4,10.4,23,30.24,9.0,SE,17.3,24.2,N/A,,Clear,140,2013-12-11 19:35:00
11:55 AM,46.4,12.2,25,30.24,10.0,SE,19.6,25.3,N/A,,Clear,130,2013-12-11 19:55:00
12:15 PM,46.4,10.4,23,30.23,10.0,SE,18.4,25.3,N/A,,Clear,140,2013-12-11 20:15:00
12:35 PM,46.4,12.2,25,30.22,10.0,SE,16.1,26.5,N/A,,Clear,140,2013-12-11 20:35:00
12:55 PM,46.4,12.2,25,30.22,10.0,SE,19.6,25.3,N/A,,Clear,140,2013-12-11 20:55:00
1:15 PM,48.2,14.0,25,30.22,10.0,SE,18.4,26.5,N/A,,Clear,130,2013-12-11 21:15:00
1:35 PM,48.2,14.0,25,30.22,10.0,SE,15.0,23.0,N/A,,Clear,130,2013-12-11 21:35:00
1:55 PM,48.2,14.0,25,30.22,10.0,SE,17.3,21.9,N/A,,Clear,140,2013-12-11 21:55:00
2:15 PM,48.2,14.0,25,30.22,10.0,SE,15.0,21.9,N/A,,Clear,130,2013-12-11 22:15:00
2:35 PM,48.2,15.8,27,30.22,10.0,SE,12.7,-,N/A,,Clear,130,2013-12-11 22:35:00
2:55 PM,48.2,15.8,27,30.22,10.0,SE,11.5,-,N/A,,Clear,130,2013-12-11 22:55:00
3:15 PM,46.4,14.0,27,30.23,9.0,SE,12.7,-,N/A,,Clear,130,2013-12-11 23:15:00
3:35 PM,46.4,15.8,29,30.23,10.0,SE,12.7,-,N/A,,Clear,130,2013-12-11 23:35:00
3:55 PM,44.6,15.8,31,30.23,10.0,SE,13.8,-,N/A,,Clear,130,2013-12-11 23:55:00
4:15 PM,42.8,15.8,34,30.23,10.0,ESE,8.1,-,N/A,,Clear,120,2013-12-12 00:15:00
4:35 PM,42.8,12.2,29,30.24,10.0,ESE,10.4,-,N/A,,Clear,110,2013-12-12 00:35:00
4:55 PM,41.0,12.2,31,30.24,10.0,ESE,12.7,-,N/A,,Clear,110,2013-12-12 00:55:00
5:15 PM,41.0,12.2,31,30.25,10.0,East,10.4,-,N/A,,Clear,100,2013-12-12 01:15:00
5:35 PM,41.0,10.4,29,30.25,10.0,ESE,10.4,16.1,N/A,,Clear,110,2013-12-12 01:35:00
5:55 PM,39.2,10.4,31,30.25,10.0,East,10.4,17.3,N/A,,Clear,100,2013-12-12 01:55:00
6:15 PM,-9999,-9999,N/A,-9999,-9999.0,North,-9999.0,-,N/A,,Unknown,0,2013-12-12 02:15:00
6:35 PM,41.0,10.4,29,30.26,10.0,East,11.5,-,N/A,,Unknown,100,2013-12-12 02:35:00
6:55 PM,39.2,10.4,31,30.26,10.0,East,11.5,-,N/A,,Clear,100,2013-12-12 02:55:00
7:15 PM,39.2,10.4,31,30.26,10.0,ESE,11.5,18.4,N/A,,Clear,110,2013-12-12 03:15:00
7:35 PM,37.4,12.2,36,30.27,10.0,East,12.7,-,N/A,,Clear,90,2013-12-12 03:35:00
7:55 PM,39.2,10.4,31,30.27,10.0,East,11.5,-,N/A,,Clear,100,2013-12-12 03:55:00
8:15 PM,-9999,-9999,N/A,-9999,-9999.0,North,-9999.0,-,N/A,,Unknown,0,2013-12-12 04:15:00
8:35 PM,35.6,12.2,38,30.28,10.0,East,5.8,-,N/A,,Unknown,100,2013-12-12 04:35:00
8:55 PM,35.6,14.0,41,30.28,10.0,ENE,6.9,-,N/A,,Clear,70,2013-12-12 04:55:00
9:15 PM,-9999,-9999,N/A,-9999,-9999.0,North,-9999.0,-,N/A,,Unknown,0,2013-12-12 05:15:00
9:35 PM,37.4,12.2,36,30.28,10.0,North,-9999.0,-,N/A,,Unknown,0,2013-12-12 05:35:00
9:55 PM,37.4,12.2,36,30.28,10.0,East,10.4,-,N/A,,Clear,90,2013-12-12 05:55:00
10:15 PM,-9999,-9999,N/A,-9999,-9999.0,North,-9999.0,-,N/A,,Unknown,0,2013-12-12 06:15:00
10:35 PM,39.2,10.4,31,30.28,10.0,East,10.4,-,N/A,,Unknown,100,2013-12-12 06:35:00
10:55 PM,39.2,10.4,31,30.28,10.0,ESE,11.5,-,N/A,,Clear,110,2013-12-12 06:55:00
11:15 PM,41.0,10.4,29,30.28,10.0,East,12.7,-,N/A,,Clear,100,2013-12-12 07:15:00
11:35 PM,39.2,10.4,31,30.27,10.0,North,-9999.0,-,N/A,,Clear,0,2013-12-12 07:35:00
11:55 PM,39.2,10.4,31,30.27,10.0,East,10.4,16.1,N/A,,Clear,100,2013-12-12 07:55:00